Hourly Data Report for June 26, 2021

ST-JOVITE
QUEBEC
Current Station Operator: ECCC - MSC

46°04'49.000" N
74°33'21.000" W
238.50 m
703GDKB
71376
WJT

Download Data

Hourly Data (June 2021)
Hourly Data Report for June 26, 2021
TIME
LST
Temp Definition
°C
Dew Point Definition
°C
Rel Hum Definition
%
Precip. Amount Definition
mm

Wind Dir Definition
10's deg

Wind Spd Definition
km/h
Visibility Definition
km
Stn Press Definition
kPa
Hmdx Definition


Wind Chill Definition


Weather Definition


00:00 17.6 17.1 97 0.0 0 1   99.07     LegendNANA
01:00 17.7 17.3 97 2.0 0 1   99.08     LegendNANA
02:00 17.5 17.2 98 2.0 18 1   99.06     LegendNANA
03:00 17.2 16.9 98 1.0 18 1   99.04     LegendNANA
04:00 17.0 16.8 99 0.0 12 1   99.03     LegendNANA
05:00 16.9 16.7 99 0.0 0 1   98.98     LegendNANA
06:00 16.9 16.4 97 0.0 14 3   98.96     LegendNANA
07:00 16.8 16.3 97 3.0 16 4   98.88     LegendNANA
08:00 16.5 16.2 98 5.0 17 3   98.86     LegendNANA
09:00 16.7 16.3 98 5.0 17 5   98.78     LegendNANA
10:00 16.8 16.4 98 6.0 14 4   98.72     LegendNANA
11:00 17.3 16.9 98 0.0 15 3   98.71     LegendNANA
12:00 17.9 17.6 98 1.0 18 4   98.63     LegendNANA
13:00 18.4 18.2 98 2.0 20 3   98.59     LegendNANA
14:00 18.7 18.5 99 1.0 20 4   98.58     LegendNANA
15:00 19.3 19.1 99 0.0 22 6   98.58     LegendNANA
16:00 19.7 19.5 99 0.0 23 4   98.61     LegendNANA
17:00 20.1 19.9 99 0.0 21 1   98.60 28   LegendNANA
18:00 20.6 20.3 98 0.0 19 3   98.61 28   LegendNANA
19:00 20.3 19.9 97 0.0 22 3   98.64 28   LegendNANA
20:00 19.8 19.6 99 0.0 25 1   98.60     LegendNANA
21:00 19.6 19.4 99 3.3 22 2   98.60     LegendNANA
22:00 19.7 19.6 99 6.7 20 1   98.56     LegendNANA
23:00 20.2 20.1 99 7.8 20 3   98.56 28   LegendNANA

Notes on Data Quality.

Legend

  • E = Estimated
  • M = Missing
  • NA = Not Available*
  • [empty] = Indicates an unobserved value
Date modified: